Location: Newark
(11.0000°N, 10.0000°W)
Time: 17:25:30
(UTC+00:00)

Envisat - Visible Passes

Search period start: 15 October 2019 00:00
Search period end: 25 October 2019 00:00
Orbit: 764 x 766 km, 98.1° (Epoch: 15 October)

Date Brightness Start Highest point End Pass type
(mag) Time Alt. Az. Time Alt. Az. Time Alt. Az.
15 Oct 3.1 18:47:47 10° SSE 18:52:42 51° ENE 18:57:36 10° N visible
16 Oct 5.1 19:50:37 10° SSW 19:54:50 27° W 19:59:04 10° NW visible
17 Oct 3.2 19:13:03 10° S 19:18:07 76° WSW 19:23:11 10° NNW visible
18 Oct 3.5 18:36:49 10° SE 18:41:29 38° ENE 18:46:08 10° N visible
18 Oct 6.1 20:18:08 10° SW 20:20:20 13° W 20:22:32 10° WNW visible
19 Oct 4.6 19:38:58 10° SSW 19:43:35 36° W 19:48:12 10° NW visible
20 Oct 2.9 19:01:49 10° SSE 19:06:53 79° ENE 19:11:57 10° N visible
21 Oct 5.8 20:05:44 10° SW 20:09:04 18° W 20:12:24 10° WNW visible
22 Oct 4.0 19:27:27 10° S 19:32:20 49° WSW 19:37:13 10° NNW visible
23 Oct 3.0 18:50:41 10° SSE 18:55:39 58° ENE 19:00:37 10° N visible
24 Oct 5.3 19:53:47 10° SSW 19:57:48 24° W 20:01:50 10° NW visible
